ボアッティーニ彗星

C/2008 S3 ( Boattini )

English version
Home page
Updated on June 11, 2016

---------------------------------------------------------------------

・ プロフィール

発見日 2008年9月29日
発見光度 18.4等
発見者 A. Boattini (Mt. Lemmon)

・ 写真集

・ 軌道要素

Epoch 2011 June 8.0 TT = JDT 2455720.5
T 2011 June 7.40069 TT                                  MPCW
q   8.0178670            (2000.0)            P               Q
z  -0.0001252      Peri.   39.96439     +0.94225504     +0.23006163
 +/-0.0000003      Node    54.94137     +0.17645126     -0.95869151
e   1.0010042      Incl.  162.70399     +0.28464083     -0.16727890
From 1660 observations 2006 Dec. 27-2015 July 17, mean residual 0".6.

・ 星図

・ 光度変化

        m1 = 3.5 + 5 logΔ + 10.0 log r(t + 150)

---------------------------------------------------------------------

軌道要素はM.P.E.C. 2015-Q71に掲載されたものです。
星図はステラナビゲータ Ver.8 (アストロアーツ) で作成したものです。
光度グラフはComet for Windowsで作成したものです。

---------------------------------------------------------------------

Copyright(C) Seiichi Yoshida (comet@aerith.net). All rights reserved.